Regional Weather Roundup
Issued by NWS

Home | Current Version | Previous Version | Text Only | Print | Product List | Glossary On
Versions: 1 2 3 4 5 6 7 8 9 10 11 12 13 14 15 16 17 18 19 20 21 22 23 24 25 26 27 28 29 30 31 32 33 34 35 36 37 38 39 40 41 42 43 44 45 46 47 48 49 50
000
ASUS43 KMKX 270921
RWRWI

WISCONSIN REGIONAL WEATHER ROUNDUP
NATIONAL WEATHER SERVICE MILWAUKEE/SULLIVAN WI
300 AM CST THU NOV 27 2014

NOTE: "FAIR" INDICATES FEW OR NO CLOUDS BELOW 12,000 FEET WITH NO
SIGNIFICANT WEATHER AND/OR OBSTRUCTIONS TO VISIBILITY.

WIZ001-002-006>008-014>016-023>028-271000-
NORTHWEST WISCONSIN

CITY           SKY/WX    TMP DP  RH WIND       PRES   REMARKS
SUPERIOR ARPT  FAIR      -2  -7  78 NW6       30.48S WCI -14
ASHLAND        CLOUDY     5   1  83 W6        30.41S WCI  -6
HAYWARD        PTCLDY     0  -4  83 NW3       30.38R
SIREN          CLEAR      0  -6  75 NW6       30.45R WCI -11
CUMBERLAND     CLEAR      1  -6  71 N9        30.38R WCI -14
RICE LAKE      CLEAR      3  -3  74 NW10      30.40S WCI -12
CHETEK         CLEAR      4  -2  77 NW6       30.39R WCI  -7
LADYSMITH      MOCLDY     7   3  84 NW10      30.36R WCI  -8
EAU CLAIRE     PTCLDY     8   0  69 NW12      30.38R WCI  -7
MENOMONIE      CLEAR      8  -1  64 NW13      30.40R WCI  -7
NEW RICHMOND   CLEAR      3  -4  72 N8        30.43R WCI -10
OSCEOLA        CLEAR      4  -3  73 N7        30.48R WCI  -8
$$

WIZ003>005-009-010-017-018-271000-
NORTH CENTRAL WISCONSIN

CITY           SKY/WX    TMP DP  RH WIND       PRES   REMARKS
MANITOWISH WTR LGT SNOW  10   7  88 N3        30.25R
ARBOR VITAE    LGT SNOW  11   9  89 N3        30.24S
WOODRUFF       LGT SNOW  11   9  89 N3        30.24S
RHINELANDER    FLURRIES  12   7  80 N6        30.23R WCI   3
EAGLE RIVER    PTCLDY    10   4  80 N6        30.22S WCI   0
LAND O LAKES   LGT SNOW   8   5  89 N6        30.24R WCI  -2
PHILLIPS       CLOUDY     9   4  82 NW8       30.28R WCI  -4
TOMAHAWK       LGT SNOW  12   9  87 CALM      30.25S
MEDFORD        FLURRIES  12   8  82 N9        30.26S WCI   0
MERRILL        LGT SNOW  15  11  85 NW6       30.25R WCI   6
$$

WIZ029-030-035-036-043>047-271000-
CENTRAL WISCONSIN

CITY           SKY/WX    TMP DP  RH WIND       PRES   REMARKS
WAUSAU         FLURRIES  16  11  80 NW6       30.24R WCI   7
MOSINEE        FLURRIES  18  14  86 NW8       30.26R WCI   7
MARSHFIELD     CLOUDY    16  11  80 NW12      30.27R WCI   3
STEVENS POINT  CLOUDY    16  12  84 NW6       30.26R WCI   8
WAUPACA        CLOUDY    24  19  80 W6        30.25R WCI  17
WAUTOMA        CLOUDY    22  16  78 NW8       30.26R WCI  13
WISC RAPIDS    CLOUDY    18  11  74 NW9       30.29R WCI   7
CAMP DOUGLAS   LGT SNOW  21  19  93 NW10      30.29R FOG     WCI  10
$$

WIZ011>013-019>022-031-037>040-048>050-271000-
NORTHEAST WISCONSIN

CITY           SKY/WX    TMP DP  RH WIND       PRES   REMARKS
ANTIGO         CLOUDY    15  11  83 N12       30.21R WCI   2
SHAWANO        CLOUDY    25  20  83 NW3       30.24R
OCONTO         CLOUDY    22  17  79 N8        30.23R WCI  13
STURGEON BAY   CLOUDY    25  18  74 N17       30.20S WCI  11
GREEN BAY      LGT SNOW  24  20  84 N9        30.23R FOG     WCI  14
MANITOWOC      MIX PCPN  24  22  91 NW9       30.21S WCI  14
APPLETON       CLOUDY    23  19  86 NW9       30.23R WCI  13
CLINTONVILLE   FLURRIES  23  18  80 NW6       30.23S WCI  16
OSHKOSH        CLOUDY    23  18  81 MISG      30.23R
$$

WIZ032>034-041-042-053>061-271000-
SOUTHWEST WISCONSIN

CITY           SKY/WX    TMP DP  RH WIND       PRES   REMARKS
LA CROSSE      CLOUDY    20  13  74 N8        30.35R WCI  10
SPARTA         FLURRIES  20  16  83 NW9       30.33R WCI  10
VIROQUA        CLOUDY    21  17  85 NW13      30.27S WCI   9
BOSCOBEL       LGT SNOW  25  18  74 NW6       30.32R WCI  18
PRAIRIE DU CHI CLOUDY    24  18  76 NW7       30.32S WCI  16
PLATTEVILLE    CLOUDY    24  21  85 CALM      30.29S
$$

WIZ056-057-062-063-064-067-068-271000-
SOUTH CENTRAL WISCONSIN

CITY           SKY/WX    TMP DP  RH WIND       PRES   REMARKS
REEDSBURG      FLURRIES  23  19  87 NW6       30.27S WCI  15
BARABOO/DELLS  LGT SNOW  23  19  87 NW3       30.26S
LONE ROCK      LGT SNOW  27  19  72 W7        30.29S WCI  19
MINERAL POINT  FLURRIES  27  21  80 NW8       30.26S WCI  18
MADISON        CLOUDY    23  19  85 NW8       30.26R WCI  14
MIDDLETON      CLOUDY    24  21  90 NW7       30.26S WCI  15
WATERTOWN      CLOUDY    20  20  98 NW5       30.24R WCI  14
MONROE         CLOUDY    21  21 100 NW8       30.25R WCI  12
JANESVILLE     CLOUDY    21  19  93 NW5       30.24S FOG     WCI  15
$$

WIZ051-052-058>065-066-070>072-271000-
SOUTHEAST WISCONSIN

CITY           SKY/WX    TMP DP  RH WIND       PRES   REMARKS
MILWAUKEE      CLOUDY    24  18  77 NW9       30.22R WCI  14
WAUKESHA       LGT SNOW  19  18  93 NW13      30.22S WCI   7
MILWAUKEE/TIMM LGT SNOW  23  19  86 NW8       30.23R WCI  14
RACINE         CLOUDY    21  16  81 W6        30.23R WCI  13
BURLINGTON     MOCLDY    19  17  91 NW10      30.22S WCI   8
KENOSHA        CLOUDY    20  17  88 NW10      30.22R FOG     WCI   9
FOND DU LAC    CLOUDY    22  18  85 NW9       30.23R WCI  12
SHEBOYGAN      LGT SNOW  22  19  89 NW6       30.21S FOG     WCI  14
WEST BEND      LGT SNOW  23  19  86 NW6       30.21S WCI  16
JUNEAU         CLOUDY    21  19  91 NW6       30.24S WCI  13
$$

LSZ147-162-271000-
LAKE SUPERIOR

STATION/POSITION TIME  TEMP    WIND        PRES    WAVE
                       AIR SEA DIR/SP/G            HT/PER
                 (UTC) (F)     (DEG/KT/KT) (MB)    (FT/S)
DEVILS ISLAND    0900    8      10/ 18/ 20 1031.5R
PORT WING        0800    9     350/ 12/ 16 1030.1
SAXON HARBOR     0800   15     330/ 15/ 20 1028.4R
$$

LMZ867-665-643>646-271000-
LAKE MICHIGAN

STATION/POSITION TIME  TEMP    WIND        PRES    WAVE
                       AIR SEA DIR/SP/G            HT/PER
                 (UTC) (F)     (DEG/KT/KT) (MB)    (FT/S)
CHAMBERS ISLAND  0800   26     330/ 19/ 23 1022.4S
N MID LAKE BUOY  0850   28 42  350/ 23/ 27 1022.1R   3/ 4
NORTHPORT PIER   0905   27     350/ 22     1022.7R
ALGOMA LAKESHORE 0658          320/  8/ 10   N/A
KEWAUNEE LAKESHO 0900   25     330/  9/ 13 1021.9R
SHEBOYGAN LAKESH 0900   24 35  300/ 10/ 11 1024.3R
PORT WASHINGTON  0800   23     300/  7/ 13 1024.0R
MILWAUKEE LAKESH 0900   24     310/  9/ 13   N/A
S MID LAKE BUOY  0850   32 42  320/ 17/ 21 1022.3S   4/ 5
KENOSHA   LAKESH 0900   21     300/ 10/ 17 1023.4R
$$

TC  - TEMPERATURE IN CELSIUS
VSB - VISIBILITY IN STATUTE MILES
WCI - WIND CHILL INDEX
HX  - HEAT INDEX




USA.gov is the U.S. government's official web portal to all federal, state and local government web resources and services.